Tracking 18823 objects as of 21-October-2017
HD Live streaming from Space Station
objects crossing your sky now

OPS 8737

Track OPS 8737 now!
10-day predictions
OPS 8737 is classified as:


NORAD ID: 14690
Int'l Code: 1984-012A
Perigee: 448.5 km
Apogee: 1,697.4 km
Inclination: 63.3 °
Period: 106.5 minutes
Semi major axis: 7443 km
RCS: Unknown
Launch date: February 5, 1984
Source: United States (US)
Launch site: AIR FORCE WESTERN TEST RANGE (AFWTR)
aabbcc
Your satellite tracking list
Your tracking list is empty





NASA's NSSDC Master Catalog

Two Line Element Set (TLE):
1 14690U 84012A   17190.06599988 0.00001500  00000-0  20973-3 0    00
2 14690  63.3019  97.8732 0838915  64.2148 295.7852 13.51757363    08
Source of the keplerian elements: McCants